Weather Roundup
Issued by NWS

Home | Current Version | Previous Version | Text Only | Print | Product List | Glossary On
Versions: 1 2 3 4 5 6 7 8 9 10 11 12 13 14 15 16 17 18 19 20 21 22 23 24 25 26 27 28 29 30 31 32 33 34 35 36 37 38 39 40 41 42 43 44 45 46 47 48 49 50
000
NZUS93 KARX 171059
HRRWXR

CURRENT HOURLY OBSERVATIONS ACROSS
MUCH OF THE UPPER MISSISSIPPI VALLEY
NATIONAL WEATHER SERVICE LA CROSSE WI
600 AM CDT FRI APR 17 2015


...SOUTHEAST MINNESOTA...


CITY           SKY/WX    TMP DP  RH WIND       PRES   REMARKS
ROCHESTER      CLEAR     50  44  80 W8        30.10R
ROCHESTER/MAYO FAIR      53  46  75 CALM      30.09R
WINONA         CLEAR     48  43  81 NW3       30.07R
AUSTIN         CLEAR     45  43  93 CALM      30.09R
ALBERT LEA     CLEAR     46  45  93 CALM      30.10R
DODGE CENTER   CLEAR     46  45  93 W5        30.09R
PRESTON        CLEAR     52  44  75 W3        30.09R
OWATONNA       CLEAR     41  37  87 CALM      30.10R
FARIBAULT      CLEAR     45  43  93 CALM      30.10R FOG
$$

...ELSEWHERE IN MINNESOTA...


CITY           SKY/WX    TMP DP  RH WIND       PRES   REMARKS
MINNEAPOLIS    PTCLDY    51  44  77 W5        30.09R
INTNL FALLS    CLEAR     24  20  84 CALM      30.10R
DULUTH         CLEAR     44  32  62 N7        30.09R
RED WING       CLEAR     46  45  93 CALM      30.08R
REDWOOD FALLS  CLEAR     45  38  76 NW7       30.12R
MANKATO        CLEAR     48  41  76 W5        30.11R
WORTHINGTON    MOCLDY    45  36  70 N8        30.13S
FAIRMONT       CLEAR     48  37  66 NW9       30.11R
$$

...SOUTHWEST WISCONSIN...


CITY           SKY/WX    TMP DP  RH WIND       PRES   REMARKS
LA CROSSE      CLEAR     54  46  74 CALM      30.06R
PRAIRIE DU CHI CLEAR     47  42  81 CALM      30.06F
BOSCOBEL       CLEAR     44  40  85 CALM      30.07S
LONE ROCK      NOT AVBL
PLATTEVILLE    CLEAR     52  43  70 CALM      30.06F
FORT MC COY    PTCLDY    43  37  80 E3        30.06S
VIROQUA        FAIR      56  42  58 W6        30.06S
WIS DELLS      CLOUDY    54  39  57 CALM      30.06R
$$

...ELSEWHERE IN WISCONSIN...


CITY           SKY/WX    TMP DP  RH WIND       PRES   REMARKS
MILWAUKEE      PTCLDY    52  40  63 W3        30.06F
MADISON        PTCLDY    46  39  76 CALM      30.06S
GREEN BAY      CLOUDY    46  41  82 CALM      30.04F
EAU CLAIRE     NOT AVBL
BLACK RVR FLS  CLOUDY    47  40  75 CALM      30.05S
MEDFORD        CLEAR     42  38  84 CALM      30.06R
WAUSAU         CLEAR     46  39  76 N6        30.03F
WIS RAPIDS     CLOUDY    48  39  71 CALM      30.06S
MARSHFIELD     CLEAR     50  40  68 NW5       30.05S
RICE LAKE      FAIR      43  41  93 CALM      30.08S
$$

...NORTHEAST IOWA...


CITY           SKY/WX    TMP DP  RH WIND       PRES   REMARKS
DECORAH        PTCLDY    50  45  81 CALM      30.07R
MASON CITY     CLEAR     45  42  89 W6        30.11R
CHARLES CITY   CLEAR     50  48  93 CALM      30.09R
OELWEIN        CLEAR     52  46  82 N3        30.08S
$$

...ELSEWHERE IN IOWA...


CITY           SKY/WX    TMP DP  RH WIND       PRES   REMARKS
DES MOINES     PTCLDY    54  49  83 NW5       30.09S
IOWA CITY      CLEAR     48  45  89 CALM      30.09R
FORT DODGE     CLEAR     46  39  76 CALM      30.11R
$$

...NORTHERN ILLINOIS...


CITY           SKY/WX    TMP DP  RH WIND       PRES   REMARKS
CHICAGO-OHARE  PTCLDY    47  44  90 CALM      30.06F
CHICAGO-MIDWAY PTCLDY    50  45  83 CALM      30.06F FOG
MOLINE         CLEAR     47  42  83 CALM      30.07R
ROCKFORD       CLEAR     47  42  83 CALM      30.09R
PEORIA         CLEAR     54  48  80 CALM      30.09R
$$

NOTE: "FAIR" INDICATES FEW OR NO CLOUDS BELOW 12,000 FEET WITH NO
SIGNIFICANT WEATHER AND/OR OBSTRUCTIONS TO VISIBILITY. WIND
SPEEDS ARE IN MILES-PER-HOUR.



USA.gov is the U.S. government's official web portal to all federal, state and local government web resources and services.